Regional Weather Roundup
Issued by NWS Jackson, KY

Home | Current Version | Previous Version | Text Only | Print | Product List | Glossary Off
Versions: 1 2 3 4 5 6 7 8 9 10 11 12 13 14 15 16 17 18 19 20 21 22 23 24 25 26 27 28 29 30 31 32 33 34 35 36 37 38 39 40 41 42 43 44 45 46 47 48 49 50

000
ASUS43 KJKL 281310
RWRJKL

EAST KENTUCKY HOURLY WEATHER ROUNDUP
NATIONAL WEATHER SERVICE JACKSON KY
900 AM EDT WED SEP 28 2016

NOTE: "FAIR" INDICATES FEW OR NO CLOUDS BELOW 12,000 FEET WITH
NO SIGNIFICANT WEATHER AND/OR OBSTRUCTIONS TO VISIBILITY.

* THESE REPORTS ARE NOT UNDER NWS QUALITY CONTROL AND MAY NOT
  REPORT WEATHER SUCH AS PRECIPITATION AND FOG.

KYZ079-080-083-085-087-088-110-112-115-119-120-281400
...EASTERN KENTUCKY...

CITY           SKY/WX    TMP DP  RH WIND       PRES   REMARKS
JACKSON        SUNNY     56  46  69 CALM      29.94S
LONDON         SUNNY     51  46  83 CALM      29.95S
SOMERSET*      SUNNY     54  50  87 S5        29.95S
MONTICELLO*    SUNNY     58  50  75 NW8       29.95S
WILLIAMSBURG*  SUNNY     48  48 100 CALM      29.96S
MIDDLESBORO*   CLOUDY    47  47 100 CALM      29.99S
HARLAN APT*    CLOUDY    46  46 100 CALM      29.98S VSB<1/4
PIKE CO APT*     N/A     54  47  78 S5        29.95S
BIG SANDY APT* SUNNY     56  48  75 S5        29.94S
MOREHEAD APT*  SUNNY     57  46  67 SE8       29.92R
ASHLAND*       SUNNY     55  48  76 SE6       29.90S THUNDER
$$

KYZ035-036-041-042-044-050-067-078-099-281400
...CENTRAL KENTUCKY...

CITY           SKY/WX    TMP DP  RH WIND       PRES   REMARKS
MT STERLING*   MOSUNNY   59  46  63 SW8       29.91S
FLEMING/MASON* CLOUDY    58  46  63 S8        29.89S
DANVILLE*      SUNNY     55  50  82 SW6       29.92S
LEXINGTON      MOSUNNY   62  46  55 S12       29.87F
FRANKFORT      PTSUNNY   61  46  57 S9        29.84F
LOUISVILLE     CLOUDY    64  46  52 SW10G17   29.83S THUNDER
LEBANON*       PTSUNNY   61  46  59 S12       29.88S
GLASGOW*       PTSUNNY   57  48  72 S3        29.90S
BOWLING GREEN  MOSUNNY   61  50  67 S7        29.89S
$$

KYZ091>093-OHZ055-061-077-WVZ005-015-034-035-042-281400
...SOUTHERN OHIO/WEST VIRGINIA...

CITY           SKY/WX    TMP DP  RH WIND       PRES   REMARKS
COVINGTON      PTSUNNY   60  48  64 S9        29.81R
COLUMBUS       CLOUDY    57  48  72 W13G22    29.89R
DAYTON         HVY RAIN  54  53  97 SE7       29.85F FOG
WILMINGTON     CLOUDY    59  47  64 VRB7      29.84R
HUNTINGTON     SUNNY     55  47  74 SW5       29.91F
CHARLESTON     MOSUNNY   49  47  93 CALM      29.93F
PINEVILLE*     SUNNY     47  44  91 MISG      30.02S
BECKLEY        SUNNY     55  42  61 CALM      29.98S
BLUEFIELD      SUNNY     51  45  79 CALM      30.00R
LOGAN CO APT*    N/A     55  50  82 CALM      29.93F
$$

VAZ002-007-008-TNZ017-027-036-066-071-281400
...SOUTHWEST VIRGINIA/EAST TENNESSEE...

CITY           SKY/WX    TMP DP  RH WIND       PRES   REMARKS
WISE*          SUNNY     55  39  54 SW3       30.00S
JONESVILLE*      N/A     52  48  87 CALM      30.00S
ABINGDON*      CLOUDY    59  55  88 CALM      29.98S
BRISTOL        FOG       59  59 100 CALM      29.97R VSB 1/2
MORRISTOWN*    SUNNY     59  54  82 CALM      29.95S
SEVIERVILLE*   SUNNY     61  57  88 NW3       29.95S
KNOXVILLE      MOSUNNY   59  54  83 CALM      29.95R
OAK RIDGE      SUNNY     55  49  80 CALM      29.98S
CROSSVILLE     SUNNY     53  49  86 CALM      29.99R
NASHVILLE      MOSUNNY   57  49  74 S7        29.94R
$$

...KEY TO REMARKS...
VSB - VISIBILITY IN MILES
WCI - WIND CHILL INDEX
HX  - HEAT INDEX

$$



USA.gov is the U.S. government's official web portal to all federal, state and local government web resources and services.